Theta_e
336 335 335 336 335 333 333 334 334 334 334 334 335 335 334 334 334 334 333 331 330 330 329 329 329 330 330 330 330 330 332 332 332 334 335 334 330 328 327 325 327 331 332 332 330 329 329 329 329 327 327 327 326 326 327 325 324 324 324 322 319 315 311 307 306 305 306 308 309 313 316 316 319 321 321 321 321 321 320 320 319 319 320 320 319
334 335 336 336 334 333 333 334 333 333 333 333 333 334 335 335 334 333 333 332 330 330 329 328 330 331 330 329 329 329 331 332 331 333 335 335 332 329 327 325 326 329 332 332 330 330 329 329 329 328 327 327 327 327 328 327 327 327 326 325 323 320 316 311 307 306 305 305 306 308 311 313 315 319 320 320 320 320 320 320 319 319 319 319 319
334 334 335 334 333 333 334 334 334 333 333 333 333 334 333 333 333 333 333 331 330 330 330 329 329 330 330 329 329 329 330 331 331 332 335 336 333 330 327 325 325 327 330 331 330 329 329 329 329 328 327 327 327 328 327 326 327 328 327 327 326 323 319 314 310 308 306 305 304 304 307 309 311 315 318 320 320 319 319 319 319 319 319 319 319
335 334 333 333 332 332 332 332 332 333 333 333 332 333 332 333 333 332 332 332 331 331 330 330 330 330 329 328 328 329 329 330 330 331 333 335 334 331 328 326 325 326 329 330 330 329 329 329 329 329 328 327 327 327 327 327 327 327 327 327 326 325 320 317 314 311 309 308 306 305 304 306 307 310 314 317 318 318 319 319 319 319 319 319 318
335 334 333 332 333 333 332 332 332 332 333 333 333 333 332 332 333 333 332 332 332 332 331 330 330 329 328 328 328 328 329 328 329 330 333 335 335 333 329 326 325 325 327 329 330 329 329 329 328 329 328 327 327 327 327 327 327 326 325 326 326 326 323 320 317 314 313 311 309 308 306 305 304 305 309 312 314 317 319 319 318 319 319 319 318
335 334 334 334 334 335 334 333 333 333 333 333 333 333 331 331 332 333 332 332 332 332 331 330 329 329 328 328 328 328 328 328 329 330 331 334 336 335 331 328 326 325 325 327 328 327 328 327 326 328 329 328 327 327 327 326 326 326 325 325 325 326 325 323 321 319 317 314 312 312 311 308 304 303 304 306 308 313 317 317 317 318 318 318 319
335 334 334 335 334 335 335 334 334 333 333 332 331 332 331 331 333 333 332 332 332 332 331 330 329 329 328 328 328 328 328 328 329 330 331 332 334 335 334 331 329 328 326 325 326 327 328 327 325 327 328 328 327 326 327 326 325 326 326 326 326 326 325 323 323 323 322 318 315 315 317 314 310 306 302 302 304 308 313 316 317 317 317 317 318
335 333 333 335 334 334 335 334 334 334 332 331 331 332 332 332 332 332 332 331 333 332 330 330 329 329 329 329 329 329 329 329 329 330 330 331 334 335 334 333 331 330 328 326 326 327 327 328 326 326 327 326 327 326 327 327 326 326 326 327 327 326 325 323 323 325 325 322 317 316 319 318 316 313 306 302 302 304 309 314 316 316 315 316 317
334 333 333 334 334 334 334 334 334 334 332 331 331 332 333 333 332 332 332 332 333 332 330 329 329 328 330 330 330 329 329 329 329 329 329 330 332 333 332 332 332 331 331 328 327 326 327 328 328 328 327 326 326 327 327 327 327 327 326 328 328 327 327 325 324 324 325 325 322 319 321 321 320 318 311 305 303 302 304 307 310 311 312 313 314
334 332 333 333 334 333 333 334 334 333 331 332 332 333 332 333 333 332 332 331 331 331 330 330 329 329 330 330 330 330 330 330 330 329 329 329 329 331 332 331 331 332 332 330 328 327 327 328 328 328 329 327 327 328 328 328 328 328 327 328 330 329 328 327 325 324 324 325 325 324 324 323 322 321 318 312 307 303 302 303 304 304 306 309 312
333 333 333 333 333 333 332 333 333 332 331 332 333 334 333 332 333 333 332 330 330 331 331 330 329 329 330 330 330 330 329 330 330 330 330 329 329 331 332 331 331 331 331 330 330 328 327 327 328 328 328 328 328 327 327 328 329 329 328 328 330 330 330 329 328 327 326 325 326 326 326 325 324 323 322 319 313 307 304 304 302 301 302 305 308
333 333 334 333 334 333 332 332 332 332 331 331 333 334 334 333 332 332 332 330 330 330 330 330 329 329 330 330 331 330 329 330 330 331 330 330 330 330 331 331 331 331 330 330 330 330 328 327 328 329 329 328 328 328 328 329 329 329 329 328 329 329 329 329 329 329 328 328 327 326 326 326 326 325 325 324 320 313 308 306 305 301 299 301 304
332 332 333 333 333 333 332 332 331 332 332 332 332 333 333 333 332 331 331 331 330 329 330 330 329 330 331 331 330 330 331 330 329 330 330 330 330 330 330 330 330 330 330 330 330 330 329 327 328 330 331 329 328 329 329 328 328 329 329 329 329 329 329 330 330 329 329 329 329 328 327 326 326 326 326 326 324 320 315 310 309 305 300 298 300
331 331 331 331 332 332 332 332 331 331 332 332 331 332 332 333 333 332 331 331 330 329 330 330 329 330 332 333 332 331 331 330 329 330 329 329 329 329 329 329 329 330 330 330 330 330 330 330 329 330 331 330 329 328 327 328 328 328 328 329 329 330 330 329 329 329 329 329 330 329 329 328 326 325 325 326 326 325 321 317 313 310 306 302 299
329 329 329 330 330 330 331 332 331 331 332 332 331 332 332 332 332 332 331 330 330 330 332 332 331 331 332 333 333 333 332 332 330 329 329 330 330 329 328 327 328 329 330 330 329 329 329 329 329 330 329 329 328 327 328 328 328 329 329 328 329 330 331 331 330 330 330 330 329 329 329 330 329 327 326 326 326 326 325 321 317 314 312 309 305
327 327 327 328 329 329 330 331 332 331 331 332 332 332 331 330 331 332 331 330 331 331 332 332 331 331 332 332 332 332 333 333 332 330 330 330 329 328 328 328 327 327 328 329 329 329 329 328 329 329 329 329 328 328 329 328 328 328 328 327 327 328 329 331 330 330 330 329 329 329 329 330 330 329 328 327 326 326 325 324 321 318 316 315 314
326 325 324 326 328 328 329 329 330 331 332 331 331 331 331 330 331 331 330 330 331 330 331 331 330 330 331 331 332 333 333 332 332 331 329 328 328 327 328 329 328 328 328 328 327 328 327 327 328 328 328 328 328 328 328 328 329 329 328 326 326 326 327 327 328 329 330 330 330 330 330 329 329 330 329 328 328 327 326 325 323 321 320 319 319
326 326 326 326 327 328 328 328 328 329 330 330 330 330 330 330 329 329 330 330 330 329 330 331 331 330 329 330 331 332 332 332 332 332 329 327 327 327 327 329 329 329 328 327 327 328 328 328 328 328 328 328 328 328 328 328 329 329 328 326 326 326 325 326 326 327 329 330 330 329 329 329 330 330 329 328 328 328 327 326 325 323 322 321 321
326 326 327 328 327 327 327 327 327 326 326 327 327 327 327 329 329 329 330 330 329 329 330 330 330 330 329 329 330 330 331 331 332 331 331 329 328 326 326 328 329 329 327 327 327 327 328 328 327 327 328 328 328 328 327 327 327 327 326 326 326 325 325 325 325 326 327 327 327 327 328 329 329 329 329 329 329 329 328 327 326 325 324 324 323
326 326 327 327 326 327 326 326 326 325 325 325 326 327 327 328 329 329 329 329 329 328 329 329 329 329 329 329 330 330 330 330 330 329 330 329 328 326 326 327 327 328 328 327 326 326 327 327 327 327 327 327 327 326 326 325 325 325 325 326 326 325 325 325 325 325 326 326 327 327 327 328 328 329 329 329 329 329 329 328 327 327 327 326 325
325 324 325 325 325 325 326 325 324 324 325 325 326 327 328 328 329 330 329 329 329 328 328 328 329 329 329 328 329 329 329 328 328 328 328 328 328 327 326 327 327 327 327 327 326 326 325 325 325 326 326 326 325 324 324 324 324 324 324 324 324 324 324 325 325 325 325 326 328 328 328 328 328 328 328 328 329 328 328 329 328 328 328 328 327
325 325 324 324 325 325 325 324 323 323 324 325 326 326 327 327 328 329 329 328 329 329 329 328 328 328 328 328 328 328 327 327 327 328 328 328 328 327 326 327 327 327 326 325 325 325 324 324 324 323 324 324 322 320 319 320 319 319 319 319 319 320 322 323 323 324 323 324 325 326 326 327 327 327 327 327 328 328 328 327 327 327 328 328 328
324 324 324 324 324 324 323 322 323 323 324 324 324 324 325 326 326 326 327 327 327 328 328 328 328 327 327 328 327 327 327 327 328 327 328 329 328 328 327 325 325 326 325 324 323 323 324 324 322 321 319 318 316 315 314 314 313 314 314 313 313 314 315 316 317 317 317 317 318 319 320 321 322 323 325 325 326 326 327 326 326 326 326 327 327
322 322 323 323 323 322 322 323 323 323 322 321 321 321 322 323 323 324 324 325 325 325 325 325 325 325 325 325 325 326 326 327 327 325 325 327 327 327 325 322 322 323 322 322 321 321 322 321 319 318 316 315 313 312 312 311 311 311 311 310 310 310 310 310 310 310 311 311 311 311 312 313 314 316 318 319 320 320 321 322 323 324 324 324 324
322 322 323 323 321 320 321 322 323 322 322 321 319 319 320 321 321 321 321 322 322 322 322 320 320 319 320 320 321 322 323 324 325 325 324 325 325 324 323 321 320 319 319 319 318 319 319 319 318 317 317 316 313 311 310 310 310 309 309 309 308 308 308 307 308 308 308 308 308 308 309 309 310 310 311 311 312 312 312 314 315 317 319 319 319
321 321 321 321 320 319 320 321 321 321 321 320 318 318 319 319 319 319 318 318 319 319 319 318 317 316 316 316 316 317 318 319 321 323 323 324 323 322 322 322 320 318 317 316 315 316 317 318 318 317 317 316 314 311 309 309 309 307 307 307 306 306 306 305 306 306 306 306 307 307 308 308 308 308 309 309 309 309 309 309 309 310 311 312 313
319 319 319 318 317 318 318 319 319 319 319 319 318 317 317 317 317 316 316 316 317 317 317 317 316 316 315 315 315 316 316 316 317 320 321 321 321 320 321 323 323 319 315 313 314 314 316 317 317 317 316 315 314 312 308 307 309 308 306 304 304 304 304 305 305 305 305 306 306 306 307 307 307 308 308 308 308 309 309 309 309 309 309 309 310
318 318 317 316 316 316 316 317 318 318 318 318 317 317 316 316 315 316 316 316 316 316 316 317 317 316 316 316 316 316 316 315 316 317 317 318 319 318 318 320 322 321 318 315 314 313 313 315 315 315 314 312 312 312 310 309 311 312 309 304 303 303 304 304 303 303 303 304 303 304 304 305 306 306 307 307 308 308 308 308 308 308 308 309 309
318 317 316 315 315 316 316 316 316 317 317 317 317 316 315 315 314 315 316 316 316 316 317 317 317 317 317 316 316 316 316 315 315 315 314 315 316 316 317 317 319 322 321 319 317 312 310 312 312 312 312 311 311 311 309 309 311 313 312 307 304 304 304 305 304 303 303 302 302 302 302 302 302 302 303 303 304 305 306 306 307 307 307 308 308
317 316 316 316 316 316 316 316 316 316 316 317 316 315 315 315 315 315 316 316 316 317 316 317 317 317 316 316 317 316 316 315 315 315 314 313 313 313 316 318 318 320 319 318 318 313 308 309 309 309 309 309 309 308 307 308 310 312 311 308 305 305 306 307 306 305 305 304 304 303 303 302 300 300 300 300 300 300 301 302 302 303 303 304 305
318 317 317 317 317 316 316 316 316 316 316 316 315 315 315 316 315 315 315 315 316 316 316 316 315 315 316 316 317 316 315 314 314 314 313 313 314 313 314 316 316 318 317 316 316 313 309 308 307 307 308 307 308 307 306 307 309 310 310 308 306 307 307 307 306 306 306 306 306 306 305 304 303 302 300 300 299 299 299 299 299 299 299 300 300
318 317 318 318 318 318 317 317 317 317 317 316 316 316 316 316 315 315 315 315 315 315 315 315 315 314 314 315 316 316 315 314 314 313 312 313 313 313 314 314 315 317 316 314 314 312 309 307 307 307 308 308 308 308 307 307 309 308 309 309 307 307 308 308 307 307 306 305 306 306 306 305 304 303 302 301 301 300 300 300 299 299 298 298 298
318 318 318 318 318 318 318 318 318 318 318 317 317 317 317 316 316 316 315 315 313 314 315 315 314 315 314 315 316 315 315 315 315 314 313 313 313 314 314 314 315 316 315 312 311 311 309 308 308 308 308 309 309 308 308 309 309 308 308 308 308 307 308 308 308 307 307 306 306 307 306 304 303 302 302 302 301 301 301 301 300 300 299 298 298
318 318 318 318 318 318 318 318 318 319 319 318 318 318 316 316 316 316 316 316 315 315 315 314 314 315 315 315 314 315 315 316 315 315 315 315 314 315 316 315 316 316 315 313 311 310 309 309 308 308 309 310 309 309 309 310 310 309 308 309 309 308 308 308 308 308 307 307 307 307 307 305 303 302 302 301 301 301 300 300 300 300 300 299 298
318 318 318 318 319 318 318 318 318 318 319 319 319 318 317 317 318 317 317 317 316 316 315 314 314 316 316 315 314 315 315 315 316 316 316 316 316 316 316 316 316 316 315 314 312 311 310 310 310 310 311 312 310 309 310 310 310 310 309 309 310 309 309 308 309 309 308 308 307 307 307 306 304 303 302 302 301 301 300 300 300 299 299 299 298
318 318 317 317 318 317 318 318 318 318 318 320 320 319 319 318 318 319 319 318 317 317 316 316 316 316 317 317 316 315 316 316 316 316 316 316 316 316 316 316 316 315 315 315 314 313 313 312 312 311 312 312 311 310 310 310 310 310 310 310 310 310 310 310 310 310 309 308 307 307 307 307 305 303 303 302 302 302 302 301 301 300 300 299 298
318 318 317 317 317 317 318 318 318 319 319 319 320 320 319 320 319 320 319 319 319 318 319 319 319 317 318 318 317 316 316 316 315 316 317 316 315 315 315 315 316 316 315 315 315 315 314 313 313 313 313 312 312 312 311 310 311 311 311 311 311 311 311 310 310 310 309 308 307 307 307 307 305 304 303 303 303 303 303 303 302 302 301 301 300
319 319 318 317 317 317 318 317 318 319 318 319 320 320 320 321 321 321 320 320 320 320 320 320 320 319 319 319 319 318 317 317 316 316 316 316 314 313 314 315 315 315 315 315 315 315 315 314 314 314 314 313 312 313 311 311 311 312 311 311 311 311 311 310 310 309 308 308 307 307 307 306 305 304 304 303 303 303 304 304 303 302 302 302 301
319 320 319 318 317 317 317 317 317 318 318 319 319 319 321 322 322 322 321 322 321 321 321 321 320 321 320 320 320 319 318 318 319 318 316 316 314 312 312 314 314 314 315 314 315 315 315 315 315 314 314 313 313 312 312 312 312 312 311 311 310 310 310 310 309 308 308 307 307 307 307 306 305 305 304 303 303 303 304 304 304 303 302 303 302
319 320 319 319 318 318 318 317 317 318 318 319 319 320 321 322 321 322 322 322 322 322 322 322 321 321 320 320 320 320 319 319 319 319 317 316 315 312 311 313 313 313 314 314 314 315 315 315 315 314 314 314 313 313 312 312 312 312 311 310 310 309 309 309 308 308 307 306 306 306 306 306 305 304 303 302 302 303 304 305 304 303 303 303 303
321 321 319 319 318 318 318 317 318 320 319 319 319 319 320 321 321 321 321 322 322 321 321 321 321 321 321 320 319 320 320 319 318 318 317 316 315 313 312 312 313 312 312 313 314 314 314 315 315 315 314 314 313 313 313 312 311 311 310 309 309 308 308 308 308 308 307 306 305 305 305 305 304 303 302 302 303 303 304 304 304 304 304 304 304
322 322 320 320 319 319 319 320 320 320 320 319 319 319 321 322 321 322 322 322 321 320 320 320 320 321 321 321 320 319 320 320 319 318 317 316 315 315 314 314 313 312 312 313 313 313 314 315 314 314 314 314 313 313 312 311 311 310 309 308 308 308 308 308 307 307 306 305 305 304 303 303 302 302 302 303 303 304 304 304 304 304 305 304 304
322 321 320 320 320 319 320 321 321 321 320 320 319 319 321 322 322 322 322 322 321 320 320 321 319 319 320 320 320 319 320 320 320 318 317 316 315 315 315 314 313 313 313 313 313 314 314 314 314 313 313 313 312 312 311 311 310 309 308 307 307 307 307 307 306 306 305 304 303 303 302 302 302 303 303 304 304 303 303 303 304 304 304 304 303
322 321 320 320 320 320 319 320 321 321 321 320 319 318 319 321 322 322 321 320 320 320 320 321 320 319 319 319 319 319 319 320 320 319 318 317 315 314 314 313 312 312 313 313 313 313 313 313 312 312 311 312 312 311 311 310 309 308 307 306 306 306 306 305 305 304 303 302 302 302 302 303 303 304 304 304 304 303 303 302 303 303 303 303 303
323 322 321 321 320 320 319 321 323 322 322 321 320 318 317 318 320 321 320 319 318 319 320 320 319 319 319 318 318 319 320 319 320 319 318 317 316 314 314 313 312 311 311 311 311 312 311 311 311 311 311 311 311 310 310 308 307 306 306 305 305 304 304 304 303 302 301 301 301 302 303 304 304 304 305 304 304 303 302 302 302 302 302 302 302
323 322 321 321 320 320 320 322 323 324 322 321 320 319 318 317 319 320 320 318 318 318 318 318 317 318 318 318 318 319 319 320 320 319 318 318 317 315 313 313 312 311 311 310 310 310 309 309 309 310 311 311 310 309 308 306 305 304 304 303 302 301 301 300 300 300 300 301 302 303 303 303 303 303 303 303 303 302 302 302 302 301 301 301 301
323 323 322 322 321 321 322 323 323 324 323 321 320 320 319 319 320 320 319 318 318 317 317 316 317 318 318 317 317 318 319 320 319 318 318 317 317 315 313 312 311 310 309 309 308 308 307 306 308 309 310 310 309 307 306 304 303 302 301 300 299 298 298 298 299 299 300 300 301 302 302 302 301 301 301 301 301 302 301 301 301 301 301 301 301
322 322 322 322 320 319 321 322 323 323 323 321 321 320 320 320 320 319 318 318 318 316 316 316 316 317 317 316 316 318 319 320 319 318 317 317 316 314 312 310 309 308 307 307 307 306 306 306 307 307 307 307 306 305 304 302 301 301 300 298 298 298 298 299 299 299 299 300 300 301 301 301 301 301 301 301 301 300 300 300 300 300 300 300 300
321 321 321 321 319 318 320 322 323 323 322 321 321 321 320 319 319 319 319 318 317 316 316 316 317 318 318 317 316 317 319 320 318 316 316 315 314 312 311 309 308 308 308 307 306 305 305 305 305 305 304 304 303 302 302 301 301 300 299 299 298 298 298 298 299 299 300 300 300 300 300 300 300 300 300 300 300 299 299 299 299 299 299 299 299
318 319 320 320 320 320 320 321 321 321 321 321 320 320 319 318 319 319 318 317 316 316 316 316 317 317 315 314 316 317 317 318 317 315 315 315 314 312 310 309 309 309 309 308 307 305 304 304 304 303 303 302 302 302 302 302 301 301 300 299 299 298 299 299 299 300 300 299 299 300 299 299 298 298 298 298 298 298 298 298 298 298 298 298 298
316 316 318 318 318 318 319 320 320 320 321 319 318 317 318 318 319 318 317 316 317 316 315 314 314 312 310 311 315 316 315 315 315 314 314 315 313 311 310 310 311 310 310 308 306 305 304 305 305 304 304 303 303 303 303 302 301 301 301 300 299 298 299 299 299 299 299 298 299 299 298 297 297 297 297 297 297 297 297 297 297 297 298 297 298
Wind_Speed
11 12 10 10 9 10 10 8 10 12 12 11 9 8 9 9 8 8 8 7 6 4 5 13 17 14 11 9 9 8 7 7 9 10 9 8 9 9 8 9 11 12 10 9 8 8 8 8 7 7 7 6 6 7 8 9 9 10 11 11 11 10 10 10 10 10 10 10 10 10 9 9 10 10 10 11 10 9 9 9 9 10 10 10 10
11 12 10 9 9 8 9 8 8 11 12 11 11 10 9 9 8 8 7 6 6 6 7 10 11 14 13 10 9 10 8 7 7 10 10 8 9 9 8 9 10 12 11 9 8 8 8 7 7 7 6 5 5 5 6 7 8 9 10 10 10 9 9 9 9 9 10 10 9 9 9 9 9 9 8 9 9 9 10 10 9 10 10 10 10
10 10 8 7 7 6 7 7 7 9 11 11 11 11 10 9 8 8 6 6 7 7 9 8 10 13 14 12 9 11 10 8 9 11 13 11 10 10 9 9 10 11 11 10 8 8 8 7 7 7 6 5 5 4 5 5 5 7 8 9 9 9 8 7 8 9 9 9 9 8 8 8 8 7 7 8 8 8 10 10 10 10 10 10 10
10 9 9 7 6 6 7 7 6 8 9 9 8 8 9 8 7 7 6 6 6 5 7 6 8 12 13 13 14 9 10 12 12 11 13 12 11 10 9 9 9 9 10 10 10 9 8 7 7 7 7 7 5 4 3 3 4 5 6 7 8 8 8 7 7 8 9 9 9 9 8 8 7 7 6 7 7 8 8 8 9 10 9 9 9
12 11 10 9 9 9 9 8 7 8 7 6 6 6 7 6 6 6 5 5 4 4 5 5 6 10 10 12 16 8 7 11 10 11 12 12 12 9 9 10 10 9 9 9 10 11 11 9 9 7 7 7 6 5 4 3 2 3 4 5 5 7 8 8 7 7 7 8 9 9 8 8 8 7 6 6 6 7 7 7 8 9 9 8 8
13 13 11 9 10 11 10 9 8 8 7 6 7 7 6 5 4 5 5 4 3 4 4 4 5 8 10 13 13 12 8 10 11 13 12 12 13 10 10 10 10 9 8 9 9 10 11 10 10 8 7 7 6 6 4 4 4 2 2 3 3 5 6 7 8 7 7 7 7 8 8 8 8 8 7 6 6 6 6 6 6 7 7 8 8
10 11 11 10 10 11 10 9 9 8 7 7 7 6 6 6 5 4 4 4 3 4 4 5 7 7 10 9 11 18 10 2 4 11 11 11 13 12 12 11 11 10 9 9 8 9 10 8 9 9 8 7 6 5 4 4 4 3 2 2 2 4 5 5 6 6 6 6 6 6 6 7 7 7 7 7 6 5 5 5 5 4 4 6 7
8 8 10 9 8 9 9 9 8 7 7 7 6 5 4 4 5 4 2 1 3 5 5 6 7 6 7 5 8 18 12 10 12 8 10 11 12 11 12 12 12 11 10 10 8 8 8 6 7 8 7 7 7 6 4 4 3 3 3 2 1 3 4 5 5 5 5 5 6 6 5 5 6 6 6 6 6 5 4 4 4 3 4 4 6
7 6 9 10 8 8 8 8 7 7 7 6 5 4 4 2 2 2 0 1 2 4 4 5 5 4 5 5 4 9 8 8 12 11 9 10 11 10 10 11 10 10 10 10 9 8 8 7 6 6 5 6 8 6 5 5 3 3 3 3 1 2 3 4 4 4 4 4 5 6 5 5 6 5 5 5 5 5 4 3 3 2 3 3 4
5 6 9 9 8 8 8 8 8 7 7 6 5 3 3 3 2 0 0 0 1 2 2 3 3 3 2 3 3 5 5 4 8 11 9 7 8 10 10 10 8 9 10 10 10 10 9 8 7 6 5 5 7 7 6 5 4 3 3 3 2 1 2 3 3 4 3 3 3 4 5 6 6 6 5 4 4 4 4 3 3 2 2 2 2
4 5 7 7 7 7 8 9 8 7 7 6 5 4 3 3 3 2 0 0 1 1 1 0 2 3 2 2 4 4 2 3 6 8 8 7 9 12 10 9 7 7 9 10 10 9 9 9 8 6 5 5 6 7 7 7 6 5 4 5 4 2 1 2 1 2 3 3 2 2 3 4 4 5 5 4 3 4 4 3 2 2 1 1 1
5 4 5 6 6 6 6 7 7 7 7 6 4 4 3 3 3 2 1 1 2 2 1 1 3 5 3 2 3 3 2 2 5 7 8 9 11 12 10 9 6 4 6 9 10 9 9 9 9 7 6 6 6 6 6 6 5 4 4 5 6 5 4 2 2 1 1 1 2 2 2 2 3 3 4 4 3 3 3 2 2 2 1 1 1
6 5 5 4 5 6 6 5 6 6 6 5 4 4 3 2 2 2 2 3 4 3 1 1 3 4 2 2 2 2 3 3 5 8 7 9 11 10 9 8 7 6 7 9 9 10 10 10 9 9 6 5 5 5 5 5 5 4 3 4 6 7 6 6 5 5 4 2 0 1 2 2 2 2 2 2 2 2 1 1 1 1 1 0 1
7 6 6 4 4 5 6 5 5 5 5 5 4 4 4 3 3 3 2 3 5 4 4 4 3 2 1 1 1 2 3 4 5 6 7 10 12 11 9 7 9 10 10 10 10 9 10 9 8 7 3 4 4 5 5 6 5 4 3 4 5 4 5 7 6 6 6 4 3 1 2 2 2 2 2 2 2 2 2 1 0 1 0 0 1
7 7 7 6 4 4 5 5 5 5 6 5 4 4 3 3 4 4 3 3 3 4 5 4 4 3 1 1 1 1 2 4 5 5 7 10 12 15 13 9 9 10 10 10 9 9 8 7 7 6 3 4 5 5 6 6 4 3 3 4 5 4 4 4 4 4 3 3 4 4 5 5 5 4 2 2 3 3 3 2 2 1 1 1 1
7 7 7 6 5 5 5 5 5 7 7 6 5 4 3 4 6 5 5 5 3 3 3 4 5 4 2 1 2 0 0 3 5 5 7 8 11 16 17 13 9 8 9 10 8 7 7 6 6 6 5 4 5 4 5 6 3 2 3 2 3 4 4 4 4 3 2 2 4 5 6 7 7 6 4 3 3 4 4 3 3 3 3 3 3
6 7 7 6 6 5 5 5 4 5 6 5 4 4 3 5 5 4 5 7 6 4 3 3 3 3 2 2 2 0 0 2 4 4 6 8 11 14 15 15 12 8 8 10 8 7 6 6 6 6 5 4 5 6 7 8 6 3 3 1 1 1 2 3 3 2 1 2 3 4 6 7 8 7 6 6 5 5 5 4 4 4 4 4 5
7 7 7 7 6 5 5 5 5 6 5 5 5 5 5 6 3 3 4 5 6 5 4 3 3 2 2 2 1 0 1 2 3 2 5 8 12 14 14 15 14 11 10 10 8 7 7 9 9 7 7 7 7 7 7 7 6 4 3 2 3 3 2 1 1 2 2 1 2 3 5 7 8 8 8 8 7 6 6 5 5 5 5 5 6
6 7 8 8 9 7 6 5 5 7 8 8 7 7 8 7 5 5 6 6 5 4 4 3 4 3 2 1 2 1 1 2 1 2 2 5 10 14 14 14 15 15 13 12 9 8 9 11 11 10 10 9 8 7 6 6 5 4 4 4 4 4 4 4 3 3 3 1 1 3 4 6 7 7 7 8 7 7 7 7 6 6 6 6 7
5 7 9 9 10 8 7 7 6 7 8 9 8 7 8 8 8 9 9 8 7 6 5 4 5 5 3 1 2 1 0 2 2 1 1 2 6 11 12 13 16 17 15 14 13 12 12 13 13 13 14 12 9 8 7 7 6 5 6 6 5 5 5 5 6 5 4 4 3 3 3 4 5 5 5 6 7 8 9 9 8 7 7 8 9
5 6 7 8 9 9 8 8 7 6 8 10 9 9 10 10 11 11 11 11 10 8 8 6 6 6 4 3 2 2 3 3 2 0 1 3 4 5 8 10 13 16 17 17 16 15 15 14 14 14 14 12 10 9 8 8 8 8 8 8 7 8 8 8 9 8 7 6 7 7 6 5 4 3 4 4 5 7 9 10 10 10 10 10 11
6 6 7 7 9 11 9 7 7 8 10 10 10 11 11 12 13 13 13 13 12 11 11 9 9 8 7 5 5 5 5 5 3 2 4 7 6 5 8 8 8 12 17 18 17 15 16 16 16 14 13 11 10 10 11 11 11 11 11 11 11 11 11 11 11 11 10 9 9 10 9 8 7 5 4 4 4 6 7 8 9 11 12 12 13
5 6 6 7 9 11 10 8 8 9 10 11 11 12 11 12 13 14 14 14 14 14 13 12 11 11 10 8 8 8 8 6 4 4 4 6 7 5 8 11 11 12 16 18 18 16 16 16 14 12 12 12 11 12 13 13 13 13 12 12 12 13 12 12 12 11 11 11 11 11 11 10 10 9 8 8 7 5 4 4 4 7 10 10 11
5 6 7 7 8 10 10 10 9 10 11 11 11 11 11 12 13 14 14 14 14 15 14 13 11 11 11 9 9 10 10 9 7 7 7 7 7 4 8 13 11 12 18 20 20 19 18 16 14 14 14 12 11 12 12 13 13 12 12 12 13 13 13 13 12 12 12 12 12 12 12 12 11 11 10 10 11 10 8 6 4 3 3 4 5
6 7 7 8 8 9 10 10 10 10 11 11 11 12 12 13 13 14 14 14 14 15 15 14 12 12 11 11 11 9 9 10 11 10 8 8 8 7 10 14 11 12 17 17 18 18 17 17 16 15 13 9 9 10 10 11 12 11 11 11 12 12 12 12 12 12 12 12 12 12 12 12 11 11 11 11 11 11 11 10 8 8 7 6 6
7 7 8 9 9 10 10 10 10 10 11 11 12 13 13 13 14 14 14 14 15 15 15 15 14 14 13 13 12 11 10 9 9 12 11 10 11 10 11 13 12 13 14 16 17 16 15 15 15 14 11 8 7 8 9 10 10 11 10 10 11 11 11 12 12 12 12 12 12 12 12 12 11 11 11 11 12 11 11 10 9 9 9 8 7
9 9 9 10 10 11 10 11 11 10 10 11 12 13 13 14 14 14 14 14 15 16 15 15 15 15 14 14 13 13 13 12 10 11 12 9 9 7 5 7 8 8 10 14 17 16 15 14 13 12 10 8 6 6 8 9 9 11 11 10 10 11 11 11 11 11 11 12 12 12 11 11 11 11 11 10 10 10 10 9 9 9 8 8 9
10 9 10 10 11 11 10 10 10 10 10 10 11 12 13 13 14 14 14 14 14 15 15 15 15 15 15 15 15 13 13 14 13 13 12 8 6 7 7 6 5 4 6 8 10 13 16 16 13 11 10 9 7 7 8 9 9 9 10 10 10 10 10 11 12 12 12 12 12 12 11 11 11 10 10 9 9 9 9 9 8 8 8 8 8
11 10 10 10 10 10 10 10 10 10 10 10 11 12 12 13 14 14 14 14 14 14 14 14 14 15 15 15 15 14 13 13 13 12 13 12 9 10 13 14 11 5 4 5 4 9 14 15 14 12 9 8 8 8 7 7 8 5 4 9 10 9 10 12 13 12 13 13 13 13 12 12 12 11 11 10 10 10 10 10 10 10 10 10 10
11 10 10 10 10 10 11 10 10 10 10 10 11 11 12 13 13 13 13 13 14 14 14 14 14 14 15 14 14 14 13 13 12 10 11 11 8 10 13 14 15 10 7 7 5 8 13 13 12 12 10 9 9 8 6 6 7 4 0 7 10 7 8 11 12 12 13 14 14 14 14 13 13 13 12 12 12 12 12 12 12 13 13 13 13
11 11 11 10 10 10 10 10 10 10 10 10 10 10 11 12 12 12 12 12 13 13 12 12 13 13 13 13 12 12 12 13 12 10 12 13 10 10 12 12 14 14 15 12 6 7 12 12 10 10 10 9 8 7 5 5 6 5 1 7 9 6 6 8 10 10 12 13 14 15 15 14 14 13 13 13 13 13 13 13 13 13 13 14 14
11 11 11 10 10 10 10 10 10 10 10 9 9 9 9 10 10 10 10 10 10 10 10 10 11 11 12 12 12 12 11 11 10 9 10 13 12 12 12 11 13 14 19 18 10 7 10 10 8 8 8 6 6 7 6 4 5 4 3 4 8 5 4 6 8 8 9 11 13 15 17 15 14 13 13 13 13 13 13 13 13 13 13 14 14
11 11 10 10 10 10 10 10 10 9 9 9 8 8 8 8 8 8 7 8 8 9 9 9 9 9 10 11 10 9 9 7 7 7 6 7 11 12 12 12 13 13 17 21 15 9 8 8 8 7 6 5 6 7 6 3 3 2 6 2 7 3 2 4 6 6 7 10 12 15 18 16 14 14 13 13 14 14 14 14 14 14 14 14 15
10 11 10 10 10 10 10 10 9 9 8 8 8 7 7 8 7 7 5 6 7 7 6 6 7 8 8 9 8 7 7 7 8 8 7 8 11 13 13 12 13 13 14 18 18 13 10 8 7 7 5 3 6 6 3 3 3 1 6 1 6 3 1 5 6 6 8 11 12 15 17 17 16 15 14 14 14 14 14 14 14 14 15 15 15
10 10 10 10 10 9 9 9 9 9 8 8 7 6 6 6 6 5 4 4 5 5 4 4 5 7 6 7 7 6 6 7 8 8 8 10 11 10 9 8 9 10 9 11 15 15 13 9 7 9 6 4 6 6 3 2 2 2 4 2 4 2 2 5 8 9 11 13 14 15 15 17 18 17 16 17 17 15 15 14 14 13 14 14 15
11 10 10 10 9 9 9 9 8 8 8 8 7 6 6 5 5 5 4 4 4 4 2 2 4 5 4 4 4 5 5 5 6 6 4 6 8 7 7 8 9 8 5 7 11 11 11 9 8 8 6 4 4 3 2 1 2 1 3 3 5 6 7 7 9 12 14 16 16 14 14 16 18 17 17 19 19 17 17 16 13 12 13 14 16
11 10 10 10 9 9 9 9 9 9 8 7 7 6 6 5 5 5 5 4 5 4 3 2 3 5 3 2 2 4 3 3 4 4 2 2 6 8 11 12 11 9 6 7 7 4 5 8 8 5 3 3 2 1 2 2 5 3 3 6 7 9 11 11 11 13 16 20 18 14 13 16 17 16 18 20 19 18 18 17 14 13 14 17 18
11 10 10 10 10 10 10 9 9 9 8 7 7 6 6 6 6 6 6 6 6 5 4 4 3 3 4 3 2 4 4 2 2 4 4 3 1 5 12 13 11 9 8 5 5 3 3 6 7 6 4 2 2 2 2 2 3 3 7 10 9 9 11 12 13 13 15 19 18 15 14 16 16 16 19 22 21 19 17 16 15 14 16 18 17
11 10 10 10 11 11 10 11 11 11 11 9 7 7 7 7 7 7 7 7 6 6 5 5 4 4 5 4 2 3 4 4 3 4 5 4 3 2 7 10 9 7 5 2 4 4 3 3 4 5 4 4 1 2 2 1 1 4 9 11 10 11 10 11 14 15 13 14 16 15 14 15 16 17 19 22 23 21 18 17 16 15 16 18 16
10 11 10 10 11 12 12 11 11 10 9 8 6 8 9 10 9 9 9 9 8 8 5 4 4 4 4 4 3 2 3 4 4 5 5 4 4 5 2 3 2 1 1 1 2 3 4 4 1 2 0 2 3 0 2 2 2 5 8 8 8 10 11 13 14 13 12 14 15 15 14 15 16 18 21 24 24 22 20 18 17 16 16 16 16
9 10 11 12 12 13 13 12 8 6 6 8 10 12 12 11 12 12 12 10 8 5 4 3 5 5 5 6 7 6 6 7 7 6 6 5 5 5 5 3 3 3 1 1 2 3 5 7 2 1 2 1 5 4 3 4 3 3 4 5 6 8 12 14 12 11 13 15 15 15 15 17 19 22 25 24 22 20 19 19 18 17 16 16 16
9 9 10 12 12 11 11 10 7 8 12 14 14 14 12 11 12 12 11 9 7 6 6 6 9 10 9 10 11 10 8 10 11 9 8 8 6 5 5 4 3 3 3 2 2 3 6 9 7 5 3 4 7 7 5 5 4 3 4 6 8 11 13 13 12 13 14 14 16 18 21 22 23 24 23 21 19 19 19 19 18 17 16 16 16
13 12 12 12 12 10 9 8 8 9 13 15 15 15 14 13 13 11 9 8 8 9 10 10 12 13 13 12 13 12 10 11 12 11 10 10 9 7 7 7 7 6 5 3 2 1 4 6 8 9 7 6 8 7 5 6 5 4 6 8 9 11 12 12 13 15 15 16 20 23 25 23 21 20 20 18 18 17 17 18 18 19 20 19 18
15 17 16 15 14 12 10 9 9 10 12 14 15 17 17 15 15 13 10 8 9 10 10 11 12 14 14 12 12 11 10 12 13 11 10 12 12 11 10 10 10 8 6 5 3 1 3 4 6 8 8 7 7 5 3 4 4 5 7 8 8 9 11 12 14 17 19 21 22 23 23 21 18 17 18 17 16 16 17 18 19 20 20 19 19
14 17 19 19 17 15 13 11 10 11 12 13 14 17 19 18 18 17 13 11 12 13 11 11 12 13 12 11 11 9 10 14 12 9 9 11 12 13 12 12 12 11 9 7 5 4 1 2 3 5 5 4 5 5 4 5 6 7 8 8 8 9 12 14 16 20 21 20 21 23 22 21 19 18 17 16 15 16 16 16 18 20 19 19 20
11 14 16 17 18 17 15 13 12 11 13 15 16 17 19 19 20 19 15 13 14 13 11 11 12 11 11 11 13 12 12 15 13 9 9 10 10 11 13 13 13 12 11 10 8 8 6 3 1 1 1 1 3 3 2 4 6 6 7 8 11 13 16 17 19 21 19 17 19 21 20 19 19 18 17 17 17 17 17 16 18 20 21 21 23
9 11 13 15 17 17 16 14 13 12 13 16 17 17 18 19 19 17 13 13 14 12 10 10 11 10 10 11 13 13 13 15 14 11 11 10 8 9 11 12 11 10 11 11 9 9 8 7 5 4 4 4 3 3 4 6 8 8 8 11 13 15 17 18 18 19 17 16 17 17 17 18 19 20 21 21 20 18 17 17 18 19 21 22 24
9 10 12 13 15 16 15 14 14 14 15 16 17 17 18 19 18 15 12 13 14 11 9 9 9 9 11 12 14 16 16 15 14 12 13 11 6 6 8 9 8 8 9 10 10 9 8 7 7 6 6 7 7 7 9 9 11 12 12 13 12 12 14 16 16 16 16 15 16 17 19 19 19 20 21 20 19 20 20 20 20 19 20 21 22
10 11 13 14 14 15 16 16 16 16 17 17 17 18 19 18 16 15 14 14 14 12 10 12 11 11 13 13 12 16 19 16 14 13 12 9 5 5 9 11 9 8 8 8 9 8 7 7 7 7 8 9 9 9 10 11 12 13 13 11 9 9 11 13 13 14 15 16 16 16 17 18 18 20 22 21 21 22 22 22 20 19 19 20 20
9 10 11 12 14 15 16 17 17 17 17 17 18 19 19 17 15 16 17 15 14 14 12 13 13 13 13 11 10 14 17 16 15 14 10 8 7 8 11 13 11 9 8 8 9 9 8 7 7 7 8 9 9 10 12 13 13 12 10 8 7 7 8 9 11 13 15 16 15 13 15 18 19 20 22 23 22 21 20 19 19 20 21 20 20
9 9 11 12 13 14 15 15 16 16 16 16 17 18 17 16 15 18 19 16 14 16 15 12 10 11 12 11 10 11 12 11 12 12 10 10 10 10 13 15 13 12 11 8 6 7 5 4 5 6 8 9 11 12 12 12 11 10 10 8 7 6 6 9 12 13 11 10 11 13 17 19 18 19 20 19 16 17 19 20 21 22 23 23 23
Wind_Direction
189 199 205 215 220 214 216 218 217 219 220 216 220 237 233 236 246 241 241 241 260 286 278 292 295 285 273 247 222 211 188 178 185 175 174 176 155 147 144 137 142 149 154 152 146 145 142 138 131 121 125 133 110 90 91 89 88 87 82 82 79 77 75 71 70 69 74 79 79 81 82 86 91 88 87 91 87 82 82 83 90 87 79 78 78
198 201 201 208 204 200 212 217 215 214 217 220 226 237 238 242 248 246 254 258 266 295 291 261 265 286 282 256 228 211 181 154 181 177 166 176 165 147 143 138 141 152 156 154 150 147 146 143 135 130 134 142 136 107 95 92 91 90 84 81 79 77 80 80 79 76 76 76 75 78 79 80 89 92 90 93 89 84 83 80 81 83 81 79 78
205 209 200 211 208 192 213 216 206 208 212 215 224 234 237 243 246 245 252 268 267 276 291 263 248 275 284 281 250 212 191 182 202 186 164 172 172 151 143 140 140 151 156 155 152 149 149 153 148 140 141 144 153 140 99 93 97 96 87 81 76 72 78 87 88 87 83 80 78 77 78 79 82 88 92 91 88 87 87 86 85 83 82 81 81
210 210 195 199 199 194 227 231 209 209 212 209 216 226 232 243 252 254 252 275 281 268 285 267 251 264 270 294 285 232 183 193 212 191 166 170 171 155 144 138 139 149 156 160 156 151 153 161 159 150 147 145 156 168 129 115 108 99 94 84 79 73 75 84 91 91 90 87 84 81 78 78 77 82 92 90 91 92 86 87 92 90 85 83 84
198 201 194 186 180 183 210 229 228 222 211 200 209 220 229 241 257 267 265 286 288 263 269 251 263 276 277 309 306 276 189 190 198 178 166 163 161 157 151 140 140 147 152 165 165 158 160 163 164 163 158 155 159 165 156 160 146 104 103 95 89 86 80 81 85 88 92 92 90 86 81 77 77 80 85 88 94 96 88 85 93 94 90 88 88
188 196 191 185 185 181 185 200 215 219 213 210 214 223 230 230 254 274 268 281 281 266 273 265 290 309 314 320 315 302 255 199 174 162 163 157 153 149 148 142 138 146 150 164 170 164 165 168 169 167 163 162 162 169 162 165 186 171 130 124 105 106 100 88 84 84 85 91 92 91 86 80 79 79 80 83 88 97 96 92 95 98 98 96 92
182 191 185 189 193 179 177 190 199 201 210 223 218 219 222 212 223 247 256 274 300 305 304 313 320 324 321 315 317 325 323 202 137 147 151 146 152 151 150 151 148 153 155 159 168 168 170 172 168 166 168 170 165 174 173 153 176 194 178 162 116 111 116 103 96 91 82 83 88 92 89 80 78 76 74 77 81 94 100 98 97 91 92 106 101
179 187 175 180 188 180 182 191 193 194 210 224 215 203 206 213 229 236 245 282 332 334 331 332 327 326 343 350 321 332 355 26 32 85 132 129 140 154 159 164 163 166 165 157 161 167 170 166 162 168 176 181 168 164 171 161 167 177 174 180 108 94 104 103 101 94 84 83 83 88 90 74 71 74 74 73 78 90 101 105 104 88 82 113 118
177 178 164 167 182 191 192 186 185 195 207 213 207 190 184 201 253 270 268 104 30 356 350 342 325 321 355 25 345 331 352 22 46 83 123 124 133 152 165 173 174 183 181 164 156 157 165 165 162 163 163 170 164 156 163 165 161 161 171 181 130 77 86 94 87 79 77 78 75 78 79 67 60 65 75 74 76 85 95 100 99 96 88 109 133
167 160 162 168 181 191 187 181 184 195 200 197 197 193 188 185 184 292 317 106 40 356 350 352 337 321 331 32 5 335 341 15 74 100 127 136 134 138 152 172 175 185 188 174 163 157 159 163 166 162 153 153 157 155 156 161 166 161 166 174 182 34 72 91 74 60 57 61 69 75 70 62 55 55 62 64 71 74 78 88 83 88 96 104 126
138 147 158 163 179 191 185 184 191 197 193 188 184 187 198 175 162 174 246 343 68 75 9 158 84 41 16 17 353 334 341 17 54 89 120 123 116 123 145 174 177 184 189 185 178 168 160 161 164 161 159 160 157 156 157 169 186 188 183 181 200 236 168 138 96 41 40 40 41 59 58 49 41 42 46 43 58 72 71 81 76 76 105 137 136
126 137 150 160 179 188 182 186 194 192 181 177 172 182 199 171 153 165 160 129 112 114 188 223 83 62 30 325 336 356 29 20 44 79 110 114 118 132 149 163 168 182 185 186 187 181 173 169 166 164 173 177 173 168 164 176 199 208 207 201 215 236 242 220 204 228 275 21 22 19 20 30 19 11 20 23 38 60 67 80 86 82 98 171 210
122 121 130 152 173 170 170 177 181 179 167 162 169 181 186 159 118 116 124 112 104 105 108 80 61 61 42 296 304 39 50 31 58 79 89 94 109 133 145 145 154 165 168 177 186 189 188 187 181 178 178 175 179 182 170 175 193 208 211 204 220 235 244 247 236 235 241 246 302 19 355 355 346 323 328 351 14 25 33 72 79 80 80 169 223
115 112 108 105 128 147 159 166 157 157 155 151 154 162 166 154 128 115 112 100 100 112 104 88 91 104 123 258 326 90 88 65 78 89 86 87 96 114 125 123 139 154 168 180 183 182 188 194 193 188 166 138 168 191 188 188 192 199 214 215 220 222 231 243 247 244 239 236 243 258 278 292 291 273 286 323 332 329 311 308 24 74 60 230 216
116 114 109 100 106 117 136 154 152 151 151 144 141 149 157 152 148 128 115 111 101 128 136 120 131 140 151 171 46 78 114 95 87 82 86 93 99 109 112 108 125 143 158 169 164 158 170 179 178 179 160 147 172 190 190 190 187 196 222 239 237 224 214 227 239 245 234 223 239 247 248 254 266 264 281 321 320 313 305 288 260 254 277 273 248
107 109 111 112 117 113 119 141 155 156 149 144 151 160 149 134 138 127 129 139 114 129 157 133 134 148 146 90 66 351 212 111 101 75 75 84 93 108 113 111 118 133 138 140 137 141 157 166 165 162 158 172 179 166 161 164 163 190 212 241 251 232 221 224 232 235 226 226 234 241 244 248 258 261 265 281 287 296 297 280 252 254 262 263 259
97 96 98 105 110 111 121 122 122 135 138 139 142 146 132 122 132 135 140 145 134 143 174 144 130 151 158 125 105 151 300 121 118 73 64 74 80 96 107 113 119 120 112 114 122 132 133 131 131 127 126 142 155 150 152 154 156 176 187 164 60 214 226 233 243 237 179 229 242 241 247 254 260 259 250 253 266 283 294 284 260 255 248 244 250
99 94 90 92 93 94 109 109 100 101 103 101 98 98 104 104 111 119 122 133 137 144 156 155 150 159 199 192 165 155 53 115 132 69 58 68 78 91 102 111 120 115 103 105 116 119 112 111 113 113 112 112 124 140 150 149 151 154 140 97 68 67 63 30 347 36 83 158 243 250 262 275 277 270 258 251 255 265 278 281 273 268 257 247 247
108 105 95 88 88 87 93 103 109 106 93 85 84 79 85 91 88 90 102 113 123 141 151 151 154 173 235 233 159 154 80 65 80 105 82 60 77 90 96 106 116 117 111 108 110 109 106 105 106 113 117 112 114 121 123 120 121 115 95 76 64 67 60 52 50 55 67 76 276 269 276 286 287 285 270 255 250 252 258 265 270 273 272 269 268
117 114 109 103 95 87 87 91 97 111 104 92 87 82 83 90 92 94 98 99 101 125 143 132 138 165 204 172 145 173 12 354 18 82 161 96 89 88 92 102 109 112 109 104 103 102 103 105 105 111 114 110 106 102 99 100 101 97 85 73 64 63 60 58 58 56 55 54 39 0 332 320 310 306 293 274 261 252 248 251 260 268 270 272 274
107 105 109 114 107 96 94 86 73 91 106 98 90 87 85 83 87 93 96 94 92 100 109 104 118 144 154 134 102 51 63 67 78 149 34 99 107 90 103 104 99 108 111 104 102 99 98 99 97 102 108 105 101 98 98 98 95 90 81 70 64 61 59 60 58 55 57 63 65 59 47 39 19 335 313 303 288 274 262 256 256 257 259 264 268
99 95 93 100 104 103 103 93 74 79 94 101 100 95 89 83 83 88 90 90 88 87 92 95 103 115 118 111 92 80 83 85 103 103 56 85 113 136 137 126 110 120 120 111 109 104 96 93 91 95 102 102 98 94 95 93 86 81 76 67 63 62 60 61 60 57 59 59 60 61 58 55 49 34 19 2 328 307 296 286 273 262 260 265 270
97 96 93 87 92 99 102 100 91 87 93 104 106 101 97 92 89 88 88 88 86 85 90 96 98 97 99 100 92 90 96 103 111 114 103 104 116 145 144 130 127 138 138 128 121 117 107 101 98 93 94 97 96 90 85 82 77 71 70 68 65 63 62 60 58 54 52 49 46 45 45 47 47 44 42 37 24 8 350 328 295 266 265 274 280
111 107 107 95 90 97 102 103 98 94 95 98 104 106 103 100 96 92 90 89 88 87 89 93 95 90 91 96 97 94 98 108 108 103 121 134 130 154 146 129 124 135 145 140 129 127 126 119 109 95 90 90 90 88 81 76 74 71 71 71 68 64 63 59 56 53 49 47 43 40 38 37 38 39 37 34 34 36 37 35 32 0 328 342 338
126 120 120 114 107 106 108 108 102 100 99 95 101 108 104 98 97 93 91 90 90 89 85 83 83 84 86 87 90 93 95 104 108 106 122 141 141 150 138 130 132 138 140 132 118 118 118 113 108 100 98 99 91 83 78 77 76 73 70 70 66 61 60 56 53 50 47 45 42 39 39 36 34 34 31 27 26 28 29 26 23 16 12 21 23
137 133 128 122 116 111 111 108 104 103 99 90 93 101 100 96 95 93 93 93 92 89 85 83 79 79 85 86 79 72 72 79 97 113 123 134 140 141 135 140 150 148 133 114 103 101 99 101 105 106 106 103 92 79 74 78 82 77 67 64 64 59 56 52 47 44 41 39 38 35 34 32 30 27 24 21 19 19 19 16 14 10 7 6 6
146 139 130 125 119 113 113 110 107 105 100 93 91 95 97 96 95 94 94 93 90 86 83 81 76 73 80 85 73 60 60 60 65 89 102 119 135 127 133 157 158 140 119 106 106 106 106 109 113 118 119 108 94 81 71 71 80 75 58 53 58 55 52 47 41 36 32 28 26 25 23 21 20 18 15 13 10 9 8 5 2 359 357 355 353
148 141 132 126 120 115 114 111 110 109 107 105 100 99 99 99 98 95 94 93 91 88 85 81 76 72 74 80 78 65 61 63 64 67 64 72 90 52 42 82 96 114 119 106 115 121 119 120 118 121 126 116 102 93 80 69 68 64 48 43 46 47 50 45 37 31 25 21 16 13 10 7 3 1 360 357 354 352 350 348 346 342 340 336 334
150 146 136 127 122 120 118 115 116 114 110 107 104 103 101 99 98 96 95 94 92 89 87 84 79 76 76 79 79 74 71 67 67 67 52 51 64 42 40 61 59 50 128 112 97 112 117 122 123 123 124 118 109 101 92 76 72 72 35 30 31 41 54 48 40 35 28 23 17 11 6 1 356 351 348 344 339 336 333 331 328 325 324 324 323
154 149 140 133 128 124 121 118 117 115 113 110 107 106 104 102 100 98 98 97 95 92 88 87 84 81 81 81 78 78 80 73 66 69 57 48 62 53 48 60 50 43 108 123 82 87 100 106 117 129 134 127 121 116 109 98 101 135 336 24 24 32 54 45 34 30 26 21 18 13 7 2 357 352 348 344 340 336 332 328 325 321 319 317 316
160 153 147 142 135 131 128 125 122 117 114 111 109 107 105 102 100 102 102 99 96 95 91 87 83 82 82 81 79 74 79 80 70 67 61 56 69 70 62 64 54 63 103 111 82 85 96 97 103 120 130 130 134 136 120 98 106 141 216 12 19 27 48 39 25 20 15 12 11 8 2 358 354 352 349 346 343 339 335 332 327 323 320 317 315
164 157 155 152 146 142 136 130 126 122 118 116 114 110 105 104 103 103 104 100 95 94 92 87 83 83 81 79 75 69 76 80 74 79 73 67 76 76 76 75 56 72 106 105 88 84 98 112 119 118 132 148 158 147 125 82 68 120 181 345 9 28 52 29 14 8 1 355 356 355 354 351 348 347 345 342 341 339 336 333 328 325 321 318 316
168 165 165 163 157 151 144 140 136 131 129 124 119 114 112 113 108 101 102 101 99 97 92 88 89 88 85 85 79 74 81 71 65 87 89 86 93 79 76 81 56 62 104 113 111 105 104 127 129 124 149 158 142 134 119 91 31 149 190 290 355 6 97 32 3 352 347 340 338 341 344 347 346 342 340 338 336 333 330 328 325 323 320 318 316
174 174 174 171 167 160 152 149 144 140 139 132 128 128 125 122 114 106 102 100 101 100 90 90 98 90 82 88 86 82 88 65 51 63 51 61 87 78 67 71 57 57 92 117 126 129 130 143 142 139 150 125 129 142 124 93 50 134 187 234 349 322 295 9 355 341 337 330 328 331 335 342 345 343 342 341 336 330 326 323 319 318 316 315 314
180 183 181 177 175 170 163 160 156 152 150 143 139 140 135 130 125 118 111 105 108 106 95 103 110 99 89 91 87 83 86 69 58 66 59 56 74 88 85 79 72 68 75 102 123 133 141 154 152 138 127 83 110 135 147 125 57 71 157 132 23 34 15 357 343 334 332 327 322 320 323 331 339 343 346 348 344 338 332 324 318 316 315 315 316
185 188 184 180 182 181 174 170 168 163 161 158 154 155 153 151 151 149 146 142 139 131 124 126 112 108 111 104 97 93 89 86 81 81 75 56 59 83 109 112 108 96 62 72 102 129 146 144 128 114 115 122 115 117 140 80 342 318 139 99 45 35 29 11 343 333 331 325 316 309 315 328 336 339 341 343 342 340 337 332 326 324 323 322 320
187 189 184 184 191 190 185 183 181 177 177 172 166 170 173 176 184 184 179 179 173 168 184 181 126 121 128 124 135 130 111 110 108 99 118 93 58 68 91 104 105 95 76 65 70 104 136 126 128 123 119 132 110 164 179 28 346 324 31 51 46 24 12 4 349 335 328 322 312 302 312 329 336 336 336 335 333 331 332 331 326 325 326 326 325
188 189 183 188 198 196 195 197 191 183 184 184 180 187 193 197 205 207 202 201 198 195 203 204 181 170 171 160 150 148 144 151 128 114 134 154 101 73 88 101 106 100 100 77 30 26 92 107 131 144 146 135 30 32 125 53 21 21 21 25 35 25 5 352 341 331 325 323 317 311 319 334 338 333 331 330 324 320 322 321 317 315 317 321 324
189 192 190 196 205 206 205 204 203 199 194 193 198 202 205 211 218 222 218 213 212 212 210 211 215 218 211 201 186 163 163 174 172 155 158 178 203 146 95 103 112 102 97 45 18 41 47 48 96 108 129 158 153 340 337 3 45 41 25 17 13 7 355 339 331 326 327 328 325 321 323 329 329 323 323 323 318 314 311 310 307 306 308 313 317
193 195 201 206 210 213 217 215 214 210 195 188 206 213 212 219 224 227 229 226 222 224 227 230 228 232 234 230 223 208 207 213 208 200 204 217 220 214 183 126 121 64 31 312 9 21 342 314 114 105 261 183 153 186 339 13 8 6 10 4 355 350 337 326 324 326 327 327 323 316 311 313 314 313 314 315 313 309 305 303 303 302 300 301 306
196 192 200 212 218 220 227 231 229 220 200 198 209 211 215 229 237 237 239 240 239 253 287 274 233 229 235 231 220 213 220 224 219 216 217 216 213 216 224 244 277 283 204 179 302 321 324 322 339 90 310 10 99 96 42 27 22 6 5 2 356 339 325 319 319 324 324 322 320 312 307 309 309 309 312 313 313 311 307 305 306 303 298 293 298
204 201 203 216 224 222 224 230 235 232 225 222 221 217 218 230 235 236 241 246 252 262 266 254 239 236 239 238 229 221 222 224 222 222 221 216 210 207 211 212 209 210 206 226 292 323 341 340 354 23 15 33 60 63 52 44 53 59 30 13 357 334 325 324 321 321 321 318 316 310 304 305 306 307 310 311 311 312 312 311 309 305 302 299 300
220 224 226 230 232 225 219 229 247 245 233 230 229 223 223 231 235 240 253 258 255 249 244 245 246 244 244 244 236 230 229 229 229 231 230 227 227 222 211 200 189 193 205 195 189 343 356 351 1 20 30 34 37 43 62 69 64 41 10 356 346 335 333 333 323 316 315 315 313 309 305 308 311 308 307 306 305 309 313 314 313 311 309 307 305
228 232 236 241 243 237 229 238 256 254 237 232 232 228 230 240 243 247 263 268 261 257 250 247 249 246 241 236 232 233 234 233 234 235 230 228 231 230 221 212 204 203 205 194 181 145 54 36 20 23 25 23 27 32 39 28 6 354 348 342 339 331 324 320 310 304 311 317 315 308 306 312 313 302 299 304 306 306 308 309 310 310 308 306 306
227 231 235 239 245 243 238 242 250 247 236 234 234 229 232 239 241 245 259 269 265 264 256 243 240 239 234 231 230 223 221 226 229 229 231 232 232 230 225 220 218 217 219 223 230 232 186 65 44 26 15 23 50 49 15 352 349 345 339 331 325 316 309 305 300 301 313 323 316 302 298 305 308 295 289 296 302 304 306 306 310 313 312 311 311
219 228 234 238 243 243 242 246 244 235 234 239 239 232 228 234 240 244 252 256 256 255 249 238 233 226 220 225 224 208 204 215 215 213 229 236 232 231 228 226 227 228 230 238 243 240 239 238 238 16 348 144 105 78 344 326 335 337 331 320 313 309 305 302 301 304 314 323 312 295 287 296 308 303 297 303 307 306 305 303 306 310 311 310 307
226 231 233 234 237 237 236 239 237 232 236 243 243 239 235 237 242 244 242 241 243 243 237 225 216 207 205 213 214 204 204 209 203 202 220 224 221 227 225 222 228 233 234 237 236 230 230 229 219 221 239 239 230 259 287 304 312 310 307 307 307 308 309 308 307 308 313 318 314 302 295 303 312 309 306 309 310 309 308 308 307 306 304 303 301
230 231 233 235 240 241 237 236 238 238 241 244 242 242 244 243 240 235 230 230 230 226 211 193 185 188 195 203 208 205 202 198 192 196 209 209 207 216 205 195 205 220 222 223 223 223 224 223 220 229 250 262 267 278 290 299 302 302 305 308 311 318 321 318 314 312 313 316 317 316 316 317 318 316 315 316 316 315 315 314 312 309 308 308 308
215 216 225 231 236 242 243 241 241 241 242 243 240 240 241 239 234 225 214 212 216 214 200 187 181 177 175 179 191 194 189 186 185 190 196 194 185 181 177 174 182 205 220 224 226 226 226 228 238 250 263 273 279 288 297 303 305 306 309 314 322 329 323 312 307 310 316 318 317 318 321 324 325 325 324 322 318 316 315 313 312 313 312 313 317
223 214 217 220 222 227 232 234 234 235 239 239 238 238 235 228 224 213 200 200 209 205 188 179 179 177 172 165 161 170 174 175 179 184 188 184 177 175 174 175 182 204 225 232 227 225 228 239 259 273 279 285 293 299 303 308 310 307 303 303 315 324 316 301 298 306 313 315 315 317 322 326 329 328 326 322 316 313 314 315 316 318 319 320 323
250 234 221 216 217 217 220 227 228 226 230 232 229 227 221 212 207 198 195 206 210 185 164 159 170 174 172 169 159 156 163 169 177 186 190 182 176 178 182 185 193 207 219 222 209 209 222 247 278 294 299 301 303 304 306 312 312 300 287 282 288 300 297 287 288 295 300 305 314 325 332 332 328 324 324 322 316 311 312 313 315 317 319 321 323